www.pogodaiklimat.ru

Погода и климат >> Архив погоды >> Россия >> Ханты-Мансийский АО >> Ваховск


ПОГОДА в Ваховске

  • Прогноз погоды в Ваховске
  • Монитор погоды в Ваховске
  • Климат города

АРХИВ ПОГОДЫ в Ваховске

Время (UTC), дата Ветер
(напр.,м/с)
 
Видим.   Явления Облачность Т
(С)
Тd
(С)
f
(%)
Тe
(С)
Тes
(С)
Комфортность P
(гПа)
Po
(гПа)
Тmin
(С)
Tmax
(С)
R
(мм)
R24
(мм)
S
(см)
06 17.05 СЗ 2 н/о н/о +0.9 -11.5 39 -2 -2 1026.3 1019.3
09 17.05 СЗ 3 н/о н/о +3.3 -12.0 32 0 0 1026.2 1019.3
12 17.05 СЗ 3 н/о н/о +2.9 -12.5 31 -0 -0 1026.4 1019.4
18 17.05 Ю 1 10 км ясно -4.2 -11.1 59 -6 -6 1027.6 1020.4
21 17.05 Ю 1 10 км ясно -6.6 -11.0 71 -9 -9 1027.1 1019.9
00 18.05 Ю 2 10 км 4/4 600 м
[Cb cap]
-1.2 -9.6 53 -4 -4 1026.6 1019.5
03 18.05 Ю 3 10 км 6/6 600 м
[Cb cap]
+4.5 -11.9 29 +2 +4 1025.4 1018.5 -7.7
06 18.05 Ю 4 н/о н/о +6.8 -9.8 29 +4 +4 1023.0 1016.2
09 18.05 Ю 4
{13}
10 км 10/10 600 м
[Cb cap]
+8.2 -10.2 26 +6 +6 1020.4 1013.6
12 18.05 ЮЗ 3 н/о н/о +9.1 -9.3 26 +8 +8 1018.7 1011.9
15 18.05 Ю 3
{10}
10 км 10/8 600 м
[Cb cap Ci fib]
+8.0 -8.2 31 +6 +6 1017.1 1010.3 +9.9
18 18.05 Ю 1 10 км 10/10 300 м
[Cb cap]
+4.6 -2.7 59 +4 +4 1014.9 1008.1
03 19.05 З 2 10 км {гроза, ливн. осадки} 10/8 600 м
[Cb cap Ci fib]
+5.7 +3.3 85 +3 +4 1011.9 1005.1 +2.5 5
09 19.05 З 4
{13}
10 км 4/4 600 м
[Cb cap]
+7.2 -8.5 32 +5 +9 1016.8 1010.0
18 19.05 С 2 10 км ясно -1.5 -6.8 67 -5 -5 1019.5 1012.5
21 19.05 ЮВ 1 н/о н/о -3.6 -6.4 81 -6 -6 1019.3 1012.2
00 20.05 В 1 10 км 10/0
[Ci fib]
-1.3 -6.1 70 -3 -2 1018.5 1011.5
03 20.05 СВ 1 10 км 10/0
[Ci fib]
+3.0 -7.6 46 +2 +9 1017.2 1010.3 -3.7
06 20.05 СВ 2 н/о н/о +6.1 -8.7 34 +5 +5 1015.8 1009.0
09 20.05 СВ 1 10 км 8/8 600 м
[Cb cap]
+7.2 -8.1 33 +7 +10 1015.9 1009.1
12 20.05 В 1 10 км 10/0
[Ci fib]
-1.3 -6.1 70 -3 0 1018.5 1011.5
18 20.05 СВ 2 10 км 1/1 600 м
[Cb cap]
-0.2 -7.0 60 -3 -3 1016.8 1009.8
21 20.05 В 2 10 км 3/3 600 м
[Cb cap]
-1.5 -6.6 68 -5 -5 1016.7 1009.7
00 21.05 В 2 10 км 10/0
[Ci fib]
+0.5 -7.0 57 -2 -2 1016.0 1009.0
03 21.05 ЮВ 4 10 км 10/0
[Ci fib]
+5.2 -6.1 44 +2 +6 1013.7 1006.9 -2.1
06 21.05 В 4
{11}
н/о н/о +6.0 +0.2 66 +2 +2 1010.2 1003.5
15 21.05 Ю 3
{13}
2000 м ливневой дождь 10/10 300 м
[Cb cap]
+9.8 +8.4 91 +7 +7 1000.1 993.5 +9.9 8
18 21.05 Ю 2 4000 м слабый ливневой дождь 10/10 300 м
[Cb cap]
+11.1 +9.7 91 +10 +10 999.3 992.8
21 21.05 Ю 2 10 км {ливн. осадки} 9/9 600 м
[Cb cap]
+11.0 +9.8 92 +10 +10 999.7 993.1
03 22.05 В 2 10 км в посл. час ливневой дождь 10/10 600 м
[Cb cap]
+12.5 +11.6 94 +11 +11 998.2 991.7 +9.8 3
06 22.05 Ю 3 н/о н/о +14.7 +11.5 81 +14 +14 996.3 989.8
09 22.05 В 1 10 км в посл. час ливневой дождь 10/10 600 м
[Cb cap]
+14.2 +12.3 88 +15 +15 993.8 987.3
12 22.05 В 3 н/о н/о +17.6 +13.3 76 +18 +18 989.6 983.2
18 22.05 ЮЗ 2 10 км 3/3 600 м
[Cb cap]
+13.4 +12.0 91 +13 +13 991.2 984.8
21 22.05 З 3
{12}
10 км 10/10 600 м
[Cb cap]
+6.6 +5.1 90 +3 +3 996.1 989.5
00 23.05 З 3 10 км 10/10 600 м
[Cb cap]
+4.7 +3.3 91 +1 +1 999.7 993.0
03 23.05 З 1 10 км 10/10 600 м
[Cb cap]
+6.9 +3.2 77 +6 +6 1001.9 995.2 +4.7 2
06 23.05 З 2 н/о н/о +9.6 +2.4 61 +8 +8 1002.4 995.8
09 23.05 СЗ 4 10 км 10/4 600 м
[Cb cap Ac trans]
+11.0 +3.3 59 +9 +11 1003.0 996.4
12 23.05 С 3 н/о н/о +9.6 +2.8 63 +8 +8 1002.7 996.1
18 23.05 С 5 4000 м слабый ливневой дождь 10/10 600 м
[Cb cap]
+4.4 -1.0 68 -0 -0 1000.5 993.7
03 24.05 С 5
{11}
4000 м слабый ливневой дождь 10/10 600 м
[Cb cap]
+0.2 -0.8 93 -6 -6 996.3 989.6 +0.1 7

 

Местоположение метеостанции Ваховск (Ханты-Мансийский АО, Россия): широта 60.95 долгота 78.77 высота над уровнем моря 56 м.

В архиве по умолчанию представлена погода в Ваховске за последнюю неделю. Архивные данные за месяц целиком и за предыдущие месяцы, начиная с января 2011 года, Вы можете получить, выбрав интересующий диапазон дат из раскрывающегося списка и нажав кнопку "Ввод!".

Внимание! Время в таблицах - всемирное. Для получения местного времени необходимо прибавить поправку, которая в Ваховске равна 5 ч.

Смотрите также архив погоды в соседних городах и на ближайших метеорологических станциях:

Погода в Александровском (Томская область, Россия) (76 км)
Погода в Ларьяке (Ханты-Мансийский АО, Россия) (81 км)
Погода в Нижневартовске (Ханты-Мансийский АО, Россия) (117 км)
Погода в Радужном (Ханты-Мансийский АО, Россия) (154 км)
Погода в Прохоркино (Томская область, Россия) (164 км)
Погода в Среднем Васюгане (Томская область, Россия) (195 км)
Погода в Корликах (Ханты-Мансийский АО, Россия) (206 км)
Погода в Напасе (Томская область, Россия) (213 км)
Погода в Каргасоке (Томская область, Россия) (239 км)
Погода в Угуте (Ханты-Мансийский АО, Россия) (263 км)

Пояснения к столбцам:

Ветер - указаны скорость ветра в м/с - средняя за 10 мин, порывы в срок и между сроками (в фигурных скобках) и направление, откуда дует ветер: С - северный, СВ - северо-восточный, В - восточный, ЮВ - юго-восточный, Ю - южный, ЮЗ - юго-западный, З - западный, СЗ - северо-западный.
Видимость - горизонтальная дальность видимости в метрах или километрах. При видимости от 1 до 10 км при отсутствии осадков обычно наблюдается дымка, при ухудшении видимости до 1 км и менее - туман. В сухую погоду видимость может ухудшаться дымом, пылью или мглою.
Явления - указаны атмосферные явления, наблюдавшиеся в срок или в последний час перед сроком; фигурными скобками обозначены явления, наблюдавшиеся между сроками (за 1-3 часа до срока); квадратными скобками обозначены град или гололедные отложения с указанием их диаметра в мм.
Облачность - указаны через наклонную черту общая и нижняя облачность в баллах и высота нижней границы облаков в метрах; квадратными скобками обозначены формы облаков: Ci - перистые, Cs - перисто-слоистые, Cc - перисто-кучевые, Ac - высококучевые, As - высокослоистые, Sc - слоисто-кучевые, Ns - слоисто-дождевые, Cu - кучевые, Cb - кучево-дождевые. Подробнее классификацию облаков см. в Атласе облаков (PDF).
T - Температура воздуха - температура, измеренная на высоте 2 м над землей.
Td - Температура точки росы - температура, при понижении до которой содержащийся в воздухе водяной пар достигнет насыщения.
f - Относительная влажность воздуха - влажноcть воздуха, измеренная на высоте 2 м над землей.
Te - Эффективная температура - температура, которую ощущает одетый по сезону человек в тени. Характеристика душности погоды. При расчете учитывается влияние влажности воздуха и скорости ветра на теплоощущения человека.
Tes - Эффективная температура на солнце - температура, которую ощущает человек, с поправкой на солнечный нагрев. Характеристика знойности погоды. Зависит от высоты солнца над горизонтом, облачности и скорости ветра. Ночью, в пасмурную погоду, а также при ветре 12 м/с и более поправка равна нулю.
P - Атмосферное давление - приведенное к уровню моря атмосферное давление.
Po - Атмосферное давление - измеренное на уровне метеостанции атмосферное давление.
Tmin - Минимальная температура - минимум температуры воздуха на высоте 2 м над землей.
Tmax - Максимальная температура - максимум температуры воздуха на высоте 2 м над землей.
R - Количество осадков - Количество выпавших осадков за период времени, мм. При наведении курсора мыши на число - период времени, за который выпало указанное количество осадков.
R24 - Количество осадков - Количество выпавших осадков за 24 часа, мм.
S - Снежный покров - Высота снежного покрова, см. При наведении курсора мыши на число - состояние снежного покрова и степень покрытия местности в баллах.